When you browse on this site, cookies collect data to enhance your experience and personalize the content and advertising you see.
Visit our Privacy Policy to learn more. By continuing to use the site, you agree to this use of cookies and data.
  • In Hungary
  • List of Countries
  • For 7 days
  • Water Temperature
  • Weather Map
  • News
  • Weather Widgets
  • user-avatar
    Login

    Hourly Weather Borowe

    Today, 12 December, Thursday

    Time Temperature Precipitation Wind Pressure Humidity
    00:00 -3°C° 0 mm 4 mps 748 mmHg 84%
    01:00 -3°C° 0 mm 4 mps 747 mmHg 83%
    02:00 -2°C° 0 mm 4 mps 747 mmHg 83%
    03:00 -2°C° 0.1 mm 5 mps 746 mmHg 87%
    04:00 -1°C° 0.1 mm 5 mps 745 mmHg 91%
    05:00 0°C° 0.1 mm 5 mps 744 mmHg 96%
    06:00 0°C° 0.4 mm 5 mps 744 mmHg 96%
    07:00 0°C° 0.4 mm 5 mps 744 mmHg 95%
    08:00 0°C° 0 mm 4 mps 744 mmHg 94%
    09:00 0°C° 0.1 mm 5 mps 744 mmHg 88%
    10:00 -1°C° 0.1 mm 6 mps 743 mmHg 82%
    11:00 -1°C° 0.1 mm 6 mps 743 mmHg 76%
    12:00 +1°C° 0 mm 6 mps 743 mmHg 76%
    13:00 +1°C° 0 mm 6 mps 743 mmHg 77%
    14:00 +1°C° 0 mm 5 mps 743 mmHg 78%
    15:00 +1°C° 0 mm 5 mps 743 mmHg 80%
    16:00 +1°C° 0 mm 5 mps 743 mmHg 82%
    17:00 +1°C° 0 mm 5 mps 742 mmHg 84%
    18:00 0°C° 0 mm 5 mps 743 mmHg 86%
    19:00 0°C° 0 mm 5 mps 743 mmHg 88%
    20:00 0°C° 0 mm 5 mps 743 mmHg 91%
    21:00 0°C° 0 mm 5 mps 742 mmHg 91%
    22:00 -1°C° 0 mm 5 mps 742 mmHg 91%
    23:00 -1°C° 0 mm 4 mps 742 mmHg 92%

    Tomorrow, 13 December, Friday

    Time Temperature Precipitation Wind Pressure Humidity
    00:00 -1°C° 0 mm 5 mps 741 mmHg 91%
    01:00 -1°C° 0 mm 5 mps 741 mmHg 89%
    02:00 -1°C° 0 mm 5 mps 741 mmHg 88%
    03:00 0°C° 0 mm 5 mps 740 mmHg 88%
    04:00 0°C° 0 mm 5 mps 740 mmHg 87%
    05:00 0°C° 0 mm 4 mps 739 mmHg 87%
    06:00 0°C° 0 mm 5 mps 738 mmHg 88%
    07:00 0°C° 0 mm 5 mps 738 mmHg 88%
    08:00 0°C° 0 mm 5 mps 737 mmHg 88%
    09:00 +1°C° 0 mm 6 mps 737 mmHg 86%
    10:00 +1°C° 0 mm 6 mps 736 mmHg 85%
    11:00 +1°C° 0 mm 6 mps 736 mmHg 83%
    12:00 +2°C° 0 mm 6 mps 735 mmHg 82%
    13:00 +2°C° 0 mm 6 mps 735 mmHg 80%
    14:00 +2°C° 0 mm 6 mps 735 mmHg 79%
    15:00 +2°C° 0 mm 7 mps 734 mmHg 79%
    16:00 +2°C° 0 mm 7 mps 734 mmHg 79%
    17:00 +2°C° 0 mm 7 mps 733 mmHg 79%
    18:00 +2°C° 0.1 mm 7 mps 734 mmHg 80%
    19:00 +2°C° 0.1 mm 7 mps 734 mmHg 82%
    20:00 +2°C° 0.1 mm 7 mps 734 mmHg 84%
    21:00 +2°C° 0 mm 7 mps 734 mmHg 83%
    22:00 +2°C° 0 mm 7 mps 734 mmHg 83%
    23:00 +2°C° 0 mm 7 mps 734 mmHg 82%

    Day after tomorrow, 14 December, Saturday

    Time Temperature Precipitation Wind Pressure Humidity
    00:00 +2°C° 0 mm 6 mps 734 mmHg 83%
    01:00 +2°C° 0 mm 6 mps 734 mmHg 84%
    02:00 +2°C° 0 mm 6 mps 735 mmHg 86%
    03:00 +2°C° 0 mm 6 mps 735 mmHg 86%
    04:00 +2°C° 0 mm 6 mps 735 mmHg 87%
    05:00 +2°C° 0 mm 6 mps 734 mmHg 87%
    06:00 +2°C° 0 mm 6 mps 735 mmHg 87%
    07:00 +2°C° 0 mm 6 mps 735 mmHg 88%
    08:00 +2°C° 0 mm 6 mps 736 mmHg 88%
    09:00 +3°C° 0 mm 6 mps 736 mmHg 86%
    10:00 +3°C° 0 mm 6 mps 736 mmHg 85%
    11:00 +3°C° 0 mm 6 mps 736 mmHg 83%
    12:00 +3°C° 0 mm 6 mps 736 mmHg 82%
    13:00 +5°C° 0 mm 5 mps 737 mmHg 81%
    14:00 +5°C° 0 mm 5 mps 737 mmHg 80%
    15:00 +5°C° 0 mm 5 mps 737 mmHg 82%
    16:00 +5°C° 0 mm 5 mps 737 mmHg 83%
    17:00 +5°C° 0 mm 4 mps 737 mmHg 85%
    18:00 +4°C° 0.3 mm 4 mps 737 mmHg 87%
    19:00 +4°C° 0.3 mm 4 mps 737 mmHg 89%
    20:00 +4°C° 0.3 mm 4 mps 737 mmHg 91%
    21:00 +4°C° 0.5 mm 4 mps 738 mmHg 89%
    22:00 +4°C° 0.5 mm 4 mps 738 mmHg 88%
    23:00 +3°C° 0.5 mm 4 mps 738 mmHg 86%

    15 December, Sunday

    Time Temperature Precipitation Wind Pressure Humidity
    00:00 +2°C° 0 mm 5 mps 738 mmHg 88%
    01:00 +2°C° 0 mm 5 mps 738 mmHg 89%
    02:00 +1°C° 0 mm 5 mps 738 mmHg 91%
    03:00 +1°C° 0 mm 5 mps 739 mmHg 88%
    04:00 +1°C° 0 mm 6 mps 739 mmHg 85%
    05:00 +2°C° 0 mm 6 mps 740 mmHg 82%
    06:00 +1°C° 0 mm 5 mps 740 mmHg 83%
    07:00 0°C° 0 mm 5 mps 741 mmHg 83%
    08:00 0°C° 0 mm 4 mps 742 mmHg 84%
    09:00 0°C° 0 mm 4 mps 742 mmHg 80%
    10:00 +1°C° 0 mm 5 mps 743 mmHg 76%
    11:00 +1°C° 0 mm 5 mps 743 mmHg 72%
    12:00 +2°C° 0 mm 5 mps 743 mmHg 72%
    13:00 +2°C° 0 mm 5 mps 743 mmHg 72%
    14:00 +3°C° 0 mm 5 mps 743 mmHg 72%
    15:00 +3°C° 0.4 mm 6 mps 743 mmHg 76%
    16:00 +3°C° 0.4 mm 6 mps 743 mmHg 80%
    17:00 +3°C° 0.4 mm 6 mps 743 mmHg 84%
    18:00 +3°C° 0.2 mm 6 mps 743 mmHg 85%
    19:00 +4°C° 0.2 mm 6 mps 743 mmHg 86%
    20:00 +4°C° 0.2 mm 6 mps 744 mmHg 86%
    21:00 +4°C° 0 mm 6 mps 744 mmHg 86%
    22:00 +4°C° 0 mm 6 mps 745 mmHg 86%
    23:00 +5°C° 0 mm 5 mps 746 mmHg 86%

    16 December, Monday

    Time Temperature Precipitation Wind Pressure Humidity
    00:00 +5°C° 0 mm 5 mps 746 mmHg 87%
    01:00 +5°C° 0 mm 5 mps 746 mmHg 87%
    02:00 +4°C° 0 mm 4 mps 747 mmHg 87%
    03:00 +4°C° 0 mm 4 mps 747 mmHg 88%
    04:00 +3°C° 0 mm 3 mps 748 mmHg 90%
    05:00 +3°C° 0 mm 3 mps 748 mmHg 91%
    06:00 +2°C° 0 mm 3 mps 748 mmHg 91%
    07:00 +2°C° 0 mm 3 mps 748 mmHg 91%
    08:00 +2°C° 0 mm 3 mps 749 mmHg 91%
    09:00 +3°C° 0 mm 3 mps 749 mmHg 89%
    10:00 +3°C° 0 mm 4 mps 749 mmHg 87%
    11:00 +4°C° 0 mm 4 mps 749 mmHg 85%
    12:00 +4°C° 0 mm 4 mps 749 mmHg 82%
    13:00 +5°C° 0 mm 4 mps 749 mmHg 80%
    14:00 +5°C° 0 mm 4 mps 749 mmHg 77%
    15:00 +5°C° 0 mm 4 mps 749 mmHg 78%
    16:00 +5°C° 0 mm 3 mps 749 mmHg 78%
    17:00 +5°C° 0 mm 3 mps 749 mmHg 79%
    18:00 +4°C° 0 mm 3 mps 749 mmHg 79%
    19:00 +4°C° 0 mm 3 mps 749 mmHg 80%
    20:00 +5°C° 0 mm 2 mps 749 mmHg 81%
    21:00 +5°C° 0 mm 2 mps 749 mmHg 82%
    22:00 +5°C° 0 mm 2 mps 749 mmHg 84%
    23:00 +4°C° 0 mm 2 mps 749 mmHg 86%

    17 December, Tuesday

    Time Temperature Precipitation Wind Pressure Humidity
    00:00 +4°C° 0 mm 2 mps 748 mmHg 87%
    01:00 +4°C° 0 mm 2 mps 748 mmHg 89%
    02:00 +3°C° 0 mm 2 mps 748 mmHg 91%
    03:00 +3°C° 0 mm 2 mps 748 mmHg 91%
    04:00 +3°C° 0 mm 2 mps 748 mmHg 92%
    05:00 +3°C° 0 mm 2 mps 748 mmHg 92%
    06:00 +3°C° 0 mm 2 mps 748 mmHg 92%
    07:00 +3°C° 0 mm 2 mps 748 mmHg 92%
    08:00 +3°C° 0 mm 2 mps 748 mmHg 92%
    09:00 +3°C° 0 mm 2 mps 748 mmHg 90%
    10:00 +3°C° 0 mm 3 mps 748 mmHg 88%
    11:00 +4°C° 0 mm 3 mps 748 mmHg 86%
    12:00 +4°C° 0 mm 3 mps 748 mmHg 84%
    13:00 +4°C° 0 mm 3 mps 747 mmHg 83%
    14:00 +5°C° 0 mm 3 mps 747 mmHg 81%
    15:00 +4°C° 0 mm 3 mps 747 mmHg 85%
    16:00 +4°C° 0 mm 2 mps 747 mmHg 88%
    17:00 +4°C° 0 mm 2 mps 747 mmHg 91%
    18:00 +4°C° 0 mm 2 mps 747 mmHg 91%
    19:00 +4°C° 0 mm 2 mps 746 mmHg 92%
    20:00 +4°C° 0 mm 2 mps 746 mmHg 92%
    21:00 +4°C° 0 mm 2 mps 746 mmHg 92%
    22:00 +4°C° 0 mm 2 mps 746 mmHg 92%
    23:00 +4°C° 0 mm 2 mps 746 mmHg 91%
    Show more